Tracking 19827 objects as of 21-Aug-2019
HD Live streaming from Space Station
objects crossing your sky now

O3B FM17

Track O3B FM17 now!
10-day predictions
O3B FM17 is classified as:


NORAD ID: 44114
Int'l Code: 2019-020C
Perigee: 8,069.3 km
Apogee: 8,076.8 km
Inclination: 0.0 °
Period: 287.9 minutes
Semi major axis: 14444 km
RCS: Unknown
Launch date: April 4, 2019
Source: O3b Networks (O3B)
Launch site: FRENCH GUIANA (FRGUI)
aabbcc
Your satellite tracking list
Your tracking list is empty




NASA's NSSDC Master Catalog

Two Line Element Set (TLE):
1 44114U 19020C   19232.68411031 -.00000021 +00000-0 +00000-0 0  9991
2 44114 000.0472 008.5844 0002600 142.6546 208.7754 05.00116660006952
Source of the keplerian elements: AFSPC